User: anonymous   Login
Location: Unspecified
(0.0000°N, 0.0000°E)
Time: 17:28:58
(UTC+00:00)
Language:

COSMOS 2451 - Orbit

View from above orbital plane
View from above orbital plane
View from above satellite
View from above satellite

Ground track
Ground track

The orbit data is extracted from the following two-line orbital elements,

1 35498U 09036A   18049.69219629 -.00000025 +00000-0 -26105-3 0  9999
2 35498 082.4901 178.8703 0006551 345.4881 014.6005 12.40815961390611
Epoch (UTC): 18 February 2018 16:36:45
Eccentricity: 0.0006551
inclination: 82.4901°
perigee height: 1498 km
apogee height: 1508 km
right ascension of ascending node: 178.8703°
argument of perigee: 345.4881°
revolutions per day: 12.40815961
mean anomaly at epoch: 14.6005°
orbit number at epoch: 39061

The dashed part of the orbit path shows where the satellite is in the earth's shadow,  

DLR